When you browse on this site, cookies collect data to enhance your experience and personalize the content and advertising you see.
Visit our Privacy Policy to learn more. By continuing to use the site, you agree to this use of cookies and data.
  • In Portugal
  • List of Countries
  • For 7 days
  • Water Temperature
  • Satellite Maps
  • Weather Map
  • Weather Widgets
  • user-avatar
    Login

    Hourly Weather Stara Zagora

    Today, 19 November, Monday

    Time Temperature Precipitation Wind Pressure Humidity
    00:00 +3°C° 2 mm 3 mps 740 mmHg 88%
    01:00 +3°C° 2 mm 3 mps 739 mmHg 89%
    02:00 +5°C° 0 mm 2 mps 738 mmHg 90%
    03:00 +5°C° 0.7 mm 2 mps 738 mmHg 90%
    04:00 +5°C° 0.7 mm 2 mps 737 mmHg 90%
    05:00 +5°C° 0.7 mm 2 mps 737 mmHg 90%
    06:00 +5°C° 0.1 mm 2 mps 737 mmHg 89%
    07:00 +5°C° 0.1 mm 2 mps 737 mmHg 88%
    08:00 +5°C° 0 mm 2 mps 737 mmHg 87%
    09:00 +6°C° 0 mm 2 mps 738 mmHg 83%
    10:00 +7°C° 0 mm 2 mps 739 mmHg 80%
    11:00 +8°C° 0 mm 2 mps 739 mmHg 76%
    12:00 +8°C° 0 mm 2 mps 740 mmHg 74%
    13:00 +8°C° 0 mm 2 mps 740 mmHg 73%
    14:00 +9°C° 0 mm 2 mps 740 mmHg 71%
    15:00 +8°C° 0 mm 2 mps 741 mmHg 74%
    16:00 +7°C° 0 mm 2 mps 741 mmHg 77%
    17:00 +6°C° 0 mm 2 mps 741 mmHg 80%
    18:00 +6°C° 0 mm 2 mps 742 mmHg 80%
    19:00 +6°C° 0 mm 1 mps 742 mmHg 80%
    20:00 +6°C° 0 mm 1 mps 742 mmHg 80%
    21:00 +6°C° 0 mm 1 mps 743 mmHg 79%
    22:00 +6°C° 0 mm 1 mps 743 mmHg 78%
    23:00 +6°C° 0 mm 1 mps 744 mmHg 78%

    Tomorrow, 20 November, Tuesday

    Time Temperature Precipitation Wind Pressure Humidity
    00:00 +6°C° 0 mm 1 mps 744 mmHg 77%
    01:00 +6°C° 0 mm 1 mps 744 mmHg 77%
    02:00 +6°C° 0 mm 1 mps 745 mmHg 77%
    03:00 +6°C° 0 mm 1 mps 745 mmHg 78%
    04:00 +5°C° 0 mm 1 mps 745 mmHg 79%
    05:00 +5°C° 0 mm 1 mps 745 mmHg 80%
    06:00 +5°C° 0 mm 1 mps 745 mmHg 82%
    07:00 +5°C° 0 mm 2 mps 745 mmHg 83%
    08:00 +5°C° 0 mm 2 mps 745 mmHg 84%
    09:00 +6°C° 0 mm 2 mps 745 mmHg 84%
    10:00 +7°C° 0 mm 2 mps 745 mmHg 84%
    11:00 +8°C° 0 mm 2 mps 746 mmHg 84%
    12:00 +8°C° 0.1 mm 2 mps 745 mmHg 85%
    13:00 +8°C° 0.1 mm 2 mps 745 mmHg 85%
    14:00 +8°C° 0.1 mm 3 mps 744 mmHg 85%
    15:00 +8°C° 0.2 mm 2 mps 744 mmHg 88%
    16:00 +8°C° 0.2 mm 2 mps 744 mmHg 90%
    17:00 +8°C° 0.2 mm 2 mps 744 mmHg 92%
    18:00 +8°C° 0.4 mm 2 mps 743 mmHg 93%
    19:00 +8°C° 0.4 mm 2 mps 743 mmHg 94%
    20:00 +8°C° 0.4 mm 2 mps 743 mmHg 94%
    21:00 +8°C° 0.5 mm 2 mps 743 mmHg 95%
    22:00 +8°C° 0.5 mm 2 mps 743 mmHg 95%
    23:00 +9°C° 0.5 mm 2 mps 743 mmHg 96%

    Day after tomorrow, 21 November, Wednesday

    Time Temperature Precipitation Wind Pressure Humidity
    00:00 +9°C° 0.7 mm 2 mps 742 mmHg 96%
    01:00 +9°C° 0.7 mm 2 mps 742 mmHg 96%
    02:00 +9°C° 0.7 mm 2 mps 742 mmHg 97%
    03:00 +9°C° 0.6 mm 2 mps 741 mmHg 97%
    04:00 +10°C° 0.6 mm 1 mps 741 mmHg 96%
    05:00 +10°C° 0.6 mm 1 mps 740 mmHg 96%
    06:00 +10°C° 0.6 mm 1 mps 740 mmHg 96%
    07:00 +10°C° 0.6 mm 1 mps 740 mmHg 95%
    08:00 +10°C° 0.6 mm 1 mps 740 mmHg 95%
    09:00 +10°C° 0.7 mm 2 mps 740 mmHg 94%
    10:00 +10°C° 0.7 mm 2 mps 740 mmHg 93%
    11:00 +10°C° 0.7 mm 2 mps 740 mmHg 92%
    12:00 +10°C° 1 mm 3 mps 740 mmHg 91%
    13:00 +10°C° 1 mm 3 mps 740 mmHg 91%
    14:00 +10°C° 1 mm 3 mps 740 mmHg 90%
    15:00 +9°C° 1.3 mm 3 mps 740 mmHg 90%
    16:00 +8°C° 1.3 mm 4 mps 740 mmHg 89%
    17:00 +8°C° 1.3 mm 4 mps 740 mmHg 89%
    18:00 +8°C° 1.7 mm 4 mps 740 mmHg 89%
    19:00 +7°C° 1.7 mm 4 mps 741 mmHg 89%
    20:00 +7°C° 1.7 mm 4 mps 741 mmHg 89%
    21:00 +7°C° 1 mm 4 mps 742 mmHg 89%
    22:00 +7°C° 1 mm 4 mps 742 mmHg 88%
    23:00 +6°C° 1 mm 4 mps 743 mmHg 87%

    22 November, Thursday

    Time Temperature Precipitation Wind Pressure Humidity
    00:00 +6°C° 0.7 mm 4 mps 743 mmHg 87%
    01:00 +6°C° 0.7 mm 4 mps 743 mmHg 87%
    02:00 +7°C° 0.7 mm 3 mps 744 mmHg 86%
    03:00 +5°C° 0.5 mm 3 mps 744 mmHg 86%
    04:00 +5°C° 0.5 mm 3 mps 744 mmHg 86%
    05:00 +5°C° 0.5 mm 3 mps 744 mmHg 85%
    06:00 +5°C° 0.3 mm 3 mps 745 mmHg 85%
    07:00 +4°C° 0.3 mm 3 mps 745 mmHg 85%
    08:00 +5°C° 0.3 mm 2 mps 746 mmHg 84%
    09:00 +6°C° 0.2 mm 2 mps 746 mmHg 83%
    10:00 +6°C° 0.2 mm 2 mps 746 mmHg 82%
    11:00 +6°C° 0.2 mm 2 mps 747 mmHg 81%
    12:00 +6°C° 0.1 mm 2 mps 747 mmHg 80%
    13:00 +6°C° 0.1 mm 2 mps 747 mmHg 79%
    14:00 +7°C° 0.1 mm 2 mps 747 mmHg 78%
    15:00 +7°C° 0.1 mm 2 mps 747 mmHg 79%
    16:00 +6°C° 0.1 mm 2 mps 747 mmHg 81%
    17:00 +6°C° 0.1 mm 2 mps 748 mmHg 82%
    18:00 +7°C° 0.1 mm 1 mps 748 mmHg 83%
    19:00 +6°C° 0.1 mm 1 mps 748 mmHg 83%
    20:00 +6°C° 0.1 mm 1 mps 748 mmHg 84%
    21:00 +6°C° 0.1 mm 1 mps 749 mmHg 84%
    22:00 +6°C° 0.1 mm 1 mps 749 mmHg 83%
    23:00 +6°C° 0.1 mm 1 mps 749 mmHg 83%

    23 November, Friday

    Time Temperature Precipitation Wind Pressure Humidity
    00:00 +5°C° 0 mm 1 mps 749 mmHg 83%
    01:00 +5°C° 0 mm 1 mps 749 mmHg 83%
    02:00 +5°C° 0 mm 1 mps 749 mmHg 84%
    03:00 +4°C° 0 mm 1 mps 750 mmHg 83%
    04:00 +4°C° 0 mm 1 mps 750 mmHg 83%
    05:00 +4°C° 0 mm 1 mps 750 mmHg 83%
    06:00 +4°C° 0 mm 1 mps 750 mmHg 82%
    07:00 +4°C° 0 mm 1 mps 751 mmHg 81%
    08:00 +4°C° 0 mm 1 mps 751 mmHg 80%
    09:00 +5°C° 0 mm 1 mps 751 mmHg 73%
    10:00 +6°C° 0 mm 1 mps 752 mmHg 66%
    11:00 +7°C° 0 mm 1 mps 752 mmHg 59%
    12:00 +7°C° 0 mm 1 mps 752 mmHg 56%
    13:00 +8°C° 0 mm 1 mps 751 mmHg 54%
    14:00 +8°C° 0 mm 2 mps 751 mmHg 52%
    15:00 +8°C° 0 mm 1 mps 751 mmHg 56%
    16:00 +7°C° 0 mm 1 mps 752 mmHg 61%
    17:00 +6°C° 0 mm 1 mps 752 mmHg 65%
    18:00 +5°C° 0 mm 1 mps 752 mmHg 68%
    19:00 +5°C° 0 mm 1 mps 752 mmHg 70%
    20:00 +4°C° 0 mm 1 mps 753 mmHg 72%
    21:00 +4°C° 0 mm 1 mps 753 mmHg 72%
    22:00 +3°C° 0 mm 1 mps 753 mmHg 72%
    23:00 +3°C° 0 mm 1 mps 753 mmHg 72%

    24 November, Saturday

    Time Temperature Precipitation Wind Pressure Humidity
    00:00 +3°C° 0 mm 1 mps 753 mmHg 72%
    01:00 +2°C° 0 mm 1 mps 753 mmHg 72%
    02:00 +2°C° 0 mm 1 mps 752 mmHg 72%
    03:00 +2°C° 0 mm 1 mps 752 mmHg 71%
    04:00 +2°C° 0 mm 1 mps 752 mmHg 71%
    05:00 +2°C° 0 mm 1 mps 752 mmHg 70%
    06:00 +2°C° 0 mm 1 mps 752 mmHg 69%
    07:00 +2°C° 0 mm 1 mps 752 mmHg 67%
    08:00 +2°C° 0 mm 1 mps 752 mmHg 66%
    09:00 +4°C° 0 mm 1 mps 752 mmHg 60%
    10:00 +6°C° 0 mm 1 mps 752 mmHg 54%
    11:00 +6°C° 0 mm 0 mps 752 mmHg 48%
    12:00 +8°C° 0 mm 1 mps 752 mmHg 47%
    13:00 +9°C° 0 mm 1 mps 751 mmHg 46%
    14:00 +9°C° 0 mm 1 mps 750 mmHg 45%
    15:00 +8°C° 0 mm 1 mps 750 mmHg 51%
    16:00 +7°C° 0 mm 1 mps 750 mmHg 56%
    17:00 +5°C° 0 mm 0 mps 750 mmHg 62%
    18:00 +4°C° 0 mm 0 mps 750 mmHg 64%
    19:00 +4°C° 0 mm 0 mps 750 mmHg 66%
    20:00 +4°C° 0 mm 0 mps 750 mmHg 68%
    21:00 +3°C° 0 mm 0 mps 750 mmHg 69%
    22:00 +3°C° 0 mm 0 mps 750 mmHg 71%
    23:00 +3°C° 0 mm 0 mps 749 mmHg 72%
    Show more